Back to catalog

STARLINK-33828

AliveCommunicationsVLEO
NORAD 63493·PAYLOAD·🇺🇸 United States

Launched Apr 7, 2025 from Vandenberg Space Force Base

Loading…

Next Passes (next 24 hours)

TLE

FreshSource: CelesTrak SupGP

Epoch: Sep 14, 2026, 21:32 UTC

1 63493C 25071A   26257.89770833 -.00011553  00000+0 -34147-3 0  2572
2 63493  53.1594 336.2417 0001064  91.2431  21.4244 15.34382966    16

Track STARLINK-33828 in real time with AllMySat

Download on the App Store